QPF
0.01 0.01 0.01 0.01 0.02 0.03 0.03 0.02 0.03 0.03 0.03 0.03 0.04 0.05 0.05 0.06 0.07 0.07 0.06 0.06 0.05 0.05 0.05 0.05 0.07 0.08 0.10 0.12 0.10 0.09 0.08 0.07 0.06 0.08 0.08 0.08 0.06 0.06 0.07 0.08 0.07 0.06 0.05
0.01 0.01 0.01 0.01 0.02 0.03 0.02 0.02 0.02 0.03 0.03 0.03 0.05 0.05 0.05 0.06 0.08 0.08 0.09 0.07 0.06 0.06 0.05 0.08 0.08 0.08 0.10 0.11 0.11 0.10 0.09 0.09 0.07 0.09 0.10 0.09 0.07 0.05 0.03 0.06 0.06 0.06 0.07
0.01 0.01 0.01 0.01 0.01 0.02 0.02 0.02 0.02 0.02 0.02 0.02 0.04 0.05 0.05 0.06 0.08 0.07 0.07 0.07 0.07 0.06 0.07 0.07 0.08 0.08 0.08 0.09 0.10 0.10 0.11 0.11 0.09 0.09 0.10 0.08 0.07 0.05 0.04 0.03 0.03 0.04 0.07
0.01 0.01 0.02 0.01 0.01 0.02 0.03 0.03 0.03 0.03 0.02 0.02 0.02 0.04 0.05 0.05 0.06 0.06 0.05 0.06 0.07 0.06 0.06 0.05 0.05 0.06 0.06 0.08 0.07 0.08 0.10 0.11 0.10 0.08 0.06 0.05 0.05 0.05 0.05 0.04 0.03 0.04 0.06
0.00 0.01 0.02 0.02 0.02 0.04 0.04 0.04 0.04 0.04 0.02 0.02 0.03 0.04 0.05 0.05 0.05 0.05 0.05 0.04 0.05 0.05 0.05 0.05 0.04 0.04 0.05 0.06 0.07 0.07 0.08 0.08 0.07 0.08 0.06 0.05 0.04 0.04 0.05 0.07 0.06 0.05 0.04
0.00 0.01 0.01 0.02 0.04 0.05 0.05 0.05 0.04 0.03 0.02 0.02 0.03 0.04 0.05 0.06 0.05 0.05 0.04 0.03 0.04 0.05 0.04 0.04 0.04 0.04 0.04 0.05 0.07 0.08 0.07 0.07 0.07 0.06 0.05 0.04 0.04 0.04 0.04 0.05 0.06 0.06 0.03
0.00 0.00 0.01 0.01 0.03 0.07 0.05 0.04 0.04 0.04 0.03 0.02 0.03 0.03 0.04 0.06 0.06 0.06 0.05 0.03 0.04 0.04 0.03 0.03 0.05 0.05 0.04 0.04 0.05 0.06 0.06 0.07 0.07 0.06 0.05 0.04 0.04 0.03 0.02 0.04 0.05 0.05 0.03
0.00 0.00 0.01 0.01 0.03 0.05 0.05 0.03 0.03 0.04 0.03 0.03 0.03 0.05 0.05 0.06 0.08 0.08 0.06 0.04 0.03 0.04 0.04 0.03 0.04 0.05 0.04 0.04 0.05 0.06 0.06 0.06 0.07 0.05 0.04 0.04 0.03 0.03 0.03 0.04 0.05 0.05 0.03
0.00 0.01 0.01 0.01 0.04 0.04 0.04 0.03 0.03 0.05 0.05 0.05 0.05 0.05 0.06 0.06 0.06 0.07 0.06 0.05 0.06 0.05 0.04 0.04 0.04 0.04 0.04 0.04 0.06 0.07 0.06 0.05 0.05 0.04 0.03 0.03 0.02 0.03 0.02 0.02 0.03 0.04 0.04
0.00 0.01 0.01 0.01 0.02 0.02 0.03 0.03 0.03 0.04 0.06 0.06 0.06 0.07 0.07 0.06 0.06 0.06 0.06 0.07 0.07 0.07 0.05 0.05 0.05 0.04 0.04 0.04 0.05 0.05 0.05 0.05 0.05 0.03 0.03 0.03 0.02 0.02 0.02 0.02 0.02 0.02 0.03
0.00 0.01 0.01 0.01 0.02 0.02 0.02 0.02 0.03 0.04 0.05 0.06 0.07 0.06 0.08 0.08 0.05 0.05 0.06 0.07 0.08 0.08 0.07 0.07 0.06 0.05 0.04 0.04 0.04 0.04 0.04 0.03 0.03 0.02 0.01 0.02 0.02 0.02 0.02 0.01 0.01 0.01 0.02
0.00 0.00 0.00 0.01 0.01 0.01 0.01 0.01 0.02 0.02 0.04 0.05 0.06 0.05 0.07 0.08 0.06 0.05 0.06 0.07 0.08 0.08 0.07 0.09 0.08 0.05 0.03 0.03 0.03 0.03 0.02 0.03 0.04 0.03 0.02 0.02 0.02 0.02 0.01 0.01 0.01 0.01 0.02
0.00 0.00 0.00 0.00 0.01 0.01 0.01 0.01 0.01 0.01 0.04 0.06 0.05 0.04 0.04 0.06 0.05 0.05 0.05 0.06 0.07 0.08 0.07 0.08 0.09 0.08 0.06 0.04 0.03 0.03 0.03 0.03 0.03 0.03 0.03 0.03 0.03 0.03 0.02 0.01 0.01 0.01 0.01
0.00 0.00 0.00 0.00 0.01 0.01 0.01 0.01 0.01 0.02 0.03 0.04 0.04 0.04 0.04 0.04 0.04 0.05 0.05 0.05 0.06 0.07 0.08 0.08 0.08 0.09 0.08 0.06 0.04 0.03 0.04 0.03 0.02 0.01 0.03 0.02 0.03 0.03 0.03 0.02 0.02 0.01 0.01
0.00 0.00 0.00 0.01 0.01 0.01 0.02 0.03 0.03 0.02 0.02 0.03 0.04 0.04 0.05 0.05 0.05 0.05 0.05 0.04 0.05 0.06 0.07 0.08 0.07 0.07 0.06 0.04 0.03 0.02 0.02 0.02 0.02 0.02 0.02 0.01 0.01 0.01 0.02 0.01 0.01 0.01 0.01
0.01 0.01 0.01 0.01 0.01 0.02 0.02 0.03 0.04 0.04 0.03 0.03 0.04 0.05 0.06 0.06 0.06 0.05 0.04 0.05 0.05 0.05 0.06 0.06 0.06 0.05 0.04 0.02 0.02 0.03 0.03 0.03 0.03 0.03 0.02 0.01 0.00 0.00 0.00 0.00 0.01 0.01 0.01
0.01 0.01 0.02 0.02 0.01 0.02 0.02 0.03 0.03 0.03 0.04 0.03 0.04 0.05 0.06 0.06 0.06 0.05 0.04 0.04 0.05 0.06 0.06 0.06 0.05 0.04 0.04 0.02 0.02 0.01 0.03 0.04 0.04 0.03 0.02 0.01 0.01 0.01 0.00 0.01 0.01 0.00 0.00
0.01 0.01 0.01 0.02 0.02 0.02 0.02 0.03 0.03 0.03 0.03 0.04 0.03 0.04 0.06 0.07 0.08 0.07 0.05 0.04 0.04 0.06 0.06 0.07 0.05 0.05 0.04 0.03 0.02 0.02 0.03 0.03 0.03 0.02 0.03 0.03 0.02 0.01 0.01 0.02 0.01 0.01 0.01
0.01 0.00 0.00 0.02 0.03 0.04 0.03 0.04 0.05 0.04 0.04 0.05 0.04 0.05 0.07 0.09 0.09 0.09 0.07 0.06 0.05 0.05 0.06 0.05 0.05 0.05 0.04 0.03 0.02 0.02 0.02 0.02 0.02 0.02 0.01 0.02 0.01 0.01 0.02 0.01 0.01 0.01 0.01
0.00 0.00 0.00 0.01 0.01 0.02 0.02 0.03 0.05 0.06 0.05 0.05 0.07 0.08 0.09 0.11 0.10 0.09 0.08 0.07 0.06 0.06 0.05 0.05 0.04 0.04 0.03 0.02 0.02 0.02 0.02 0.01 0.02 0.02 0.01 0.02 0.02 0.01 0.02 0.02 0.01 0.01 0.01
0.00 0.00 0.01 0.01 0.01 0.01 0.01 0.01 0.03 0.06 0.07 0.05 0.06 0.07 0.08 0.09 0.10 0.10 0.08 0.06 0.07 0.07 0.05 0.04 0.04 0.03 0.03 0.02 0.01 0.01 0.02 0.02 0.02 0.02 0.02 0.02 0.03 0.02 0.02 0.01 0.01 0.01 0.01
0.00 0.00 0.01 0.01 0.01 0.01 0.01 0.02 0.03 0.05 0.07 0.07 0.05 0.06 0.06 0.06 0.06 0.06 0.07 0.07 0.07 0.06 0.04 0.04 0.04 0.03 0.02 0.02 0.02 0.03 0.03 0.02 0.02 0.02 0.02 0.02 0.03 0.03 0.02 0.01 0.01 0.01 0.01
0.00 0.00 0.01 0.01 0.01 0.01 0.04 0.05 0.05 0.04 0.05 0.06 0.06 0.07 0.07 0.06 0.05 0.05 0.05 0.05 0.04 0.04 0.04 0.03 0.03 0.02 0.02 0.03 0.02 0.03 0.03 0.03 0.03 0.03 0.02 0.02 0.03 0.03 0.02 0.01 0.01 0.01 0.01
0.00 0.00 0.00 0.01 0.01 0.02 0.06 0.08 0.07 0.07 0.05 0.05 0.05 0.06 0.07 0.06 0.06 0.06 0.05 0.05 0.04 0.04 0.04 0.04 0.04 0.04 0.04 0.03 0.03 0.02 0.02 0.02 0.01 0.01 0.02 0.02 0.02 0.02 0.01 0.01 0.01 0.01 0.01
0.01 0.00 0.00 0.00 0.01 0.01 0.04 0.08 0.08 0.09 0.08 0.06 0.06 0.04 0.05 0.06 0.07 0.07 0.06 0.06 0.06 0.07 0.05 0.05 0.05 0.04 0.05 0.05 0.05 0.04 0.03 0.02 0.02 0.02 0.02 0.02 0.02 0.02 0.01 0.01 0.01 0.01 0.01
0.01 0.00 0.00 0.00 0.01 0.01 0.02 0.06 0.08 0.09 0.11 0.09 0.08 0.07 0.06 0.06 0.07 0.07 0.07 0.07 0.07 0.07 0.05 0.04 0.04 0.05 0.06 0.06 0.05 0.05 0.05 0.05 0.04 0.02 0.02 0.02 0.02 0.02 0.02 0.02 0.02 0.02 0.01
MSLP
1007.47 1008.00 1008.54 1009.06 1009.56 1010.07 1010.58 1011.11 1011.67 1012.24 1012.79 1013.29 1013.72 1014.08 1014.36 1014.58 1014.78 1014.97 1015.21 1015.48 1015.81 1016.18 1016.56 1016.94 1017.30 1017.63 1017.93 1018.22 1018.50 1018.79 1019.09 1019.38 1019.66 1019.91 1020.10 1020.22 1020.26 1020.25 1020.19 1020.11 1020.04 1020.01 1020.04
1006.75 1007.25 1007.76 1008.27 1008.77 1009.27 1009.80 1010.35 1010.94 1011.55 1012.15 1012.72 1013.21 1013.62 1013.94 1014.19 1014.39 1014.60 1014.83 1015.13 1015.48 1015.89 1016.33 1016.77 1017.20 1017.59 1017.94 1018.25 1018.53 1018.81 1019.08 1019.36 1019.63 1019.88 1020.09 1020.24 1020.33 1020.35 1020.31 1020.24 1020.15 1020.08 1020.05
1006.05 1006.52 1007.01 1007.51 1008.00 1008.50 1009.02 1009.58 1010.19 1010.83 1011.48 1012.09 1012.64 1013.10 1013.46 1013.74 1013.97 1014.19 1014.43 1014.73 1015.11 1015.55 1016.03 1016.53 1017.01 1017.44 1017.82 1018.15 1018.43 1018.68 1018.93 1019.18 1019.43 1019.69 1019.92 1020.12 1020.26 1020.34 1020.36 1020.32 1020.25 1020.17 1020.11
1005.37 1005.82 1006.31 1006.80 1007.28 1007.77 1008.28 1008.84 1009.45 1010.11 1010.78 1011.43 1012.03 1012.54 1012.95 1013.27 1013.52 1013.75 1014.01 1014.32 1014.70 1015.16 1015.67 1016.20 1016.71 1017.18 1017.59 1017.92 1018.19 1018.43 1018.65 1018.87 1019.11 1019.37 1019.63 1019.87 1020.08 1020.23 1020.31 1020.33 1020.30 1020.23 1020.17
1004.71 1005.16 1005.66 1006.15 1006.62 1007.09 1007.59 1008.13 1008.73 1009.38 1010.07 1010.75 1011.39 1011.95 1012.41 1012.77 1013.06 1013.31 1013.58 1013.89 1014.27 1014.73 1015.25 1015.79 1016.33 1016.82 1017.24 1017.59 1017.86 1018.09 1018.30 1018.50 1018.73 1018.99 1019.27 1019.55 1019.81 1020.02 1020.17 1020.24 1020.26 1020.22 1020.15
1004.11 1004.57 1005.07 1005.56 1006.03 1006.48 1006.94 1007.45 1008.02 1008.66 1009.35 1010.05 1010.72 1011.33 1011.84 1012.25 1012.58 1012.86 1013.13 1013.45 1013.82 1014.27 1014.78 1015.33 1015.87 1016.38 1016.83 1017.19 1017.49 1017.72 1017.93 1018.14 1018.37 1018.63 1018.91 1019.21 1019.50 1019.75 1019.94 1020.06 1020.10 1020.09 1020.03
1003.59 1004.06 1004.56 1005.05 1005.50 1005.92 1006.35 1006.80 1007.33 1007.94 1008.61 1009.31 1010.01 1010.65 1011.21 1011.67 1012.05 1012.37 1012.66 1012.98 1013.34 1013.78 1014.27 1014.82 1015.37 1015.90 1016.38 1016.78 1017.11 1017.39 1017.62 1017.84 1018.07 1018.33 1018.61 1018.91 1019.20 1019.46 1019.66 1019.79 1019.85 1019.84 1019.78
1003.17 1003.65 1004.16 1004.64 1005.06 1005.44 1005.81 1006.20 1006.67 1007.22 1007.85 1008.54 1009.24 1009.91 1010.52 1011.03 1011.46 1011.82 1012.14 1012.47 1012.83 1013.26 1013.75 1014.29 1014.86 1015.41 1015.93 1016.39 1016.78 1017.11 1017.38 1017.63 1017.88 1018.13 1018.40 1018.67 1018.94 1019.17 1019.36 1019.48 1019.53 1019.52 1019.46
1002.89 1003.37 1003.87 1004.33 1004.72 1005.05 1005.35 1005.66 1006.05 1006.52 1007.09 1007.74 1008.43 1009.11 1009.75 1010.32 1010.80 1011.20 1011.57 1011.92 1012.30 1012.72 1013.22 1013.76 1014.34 1014.93 1015.50 1016.02 1016.48 1016.88 1017.22 1017.51 1017.77 1018.02 1018.27 1018.50 1018.72 1018.91 1019.06 1019.16 1019.19 1019.18 1019.11
1002.73 1003.22 1003.71 1004.14 1004.49 1004.75 1004.98 1005.21 1005.49 1005.87 1006.36 1006.94 1007.59 1008.27 1008.92 1009.53 1010.06 1010.52 1010.93 1011.33 1011.73 1012.18 1012.68 1013.24 1013.85 1014.47 1015.09 1015.68 1016.21 1016.67 1017.07 1017.41 1017.70 1017.95 1018.17 1018.37 1018.54 1018.69 1018.80 1018.86 1018.89 1018.87 1018.82
1002.68 1003.16 1003.64 1004.05 1004.36 1004.57 1004.72 1004.86 1005.04 1005.31 1005.69 1006.19 1006.77 1007.41 1008.06 1008.68 1009.26 1009.78 1010.25 1010.70 1011.15 1011.63 1012.16 1012.75 1013.37 1014.03 1014.69 1015.32 1015.91 1016.43 1016.89 1017.27 1017.58 1017.83 1018.05 1018.22 1018.36 1018.48 1018.56 1018.62 1018.64 1018.64 1018.62
1002.67 1003.16 1003.63 1004.03 1004.31 1004.48 1004.57 1004.63 1004.71 1004.86 1005.13 1005.51 1006.01 1006.58 1007.21 1007.83 1008.44 1009.02 1009.55 1010.07 1010.58 1011.11 1011.67 1012.28 1012.93 1013.60 1014.27 1014.94 1015.56 1016.12 1016.61 1017.02 1017.35 1017.63 1017.84 1018.01 1018.15 1018.26 1018.34 1018.41 1018.47 1018.51 1018.53
1002.63 1003.14 1003.63 1004.03 1004.31 1004.47 1004.52 1004.51 1004.50 1004.55 1004.70 1004.97 1005.36 1005.85 1006.43 1007.04 1007.67 1008.29 1008.89 1009.48 1010.06 1010.64 1011.24 1011.87 1012.52 1013.19 1013.86 1014.52 1015.14 1015.71 1016.21 1016.64 1017.00 1017.29 1017.52 1017.71 1017.87 1018.00 1018.12 1018.23 1018.33 1018.42 1018.51
1002.51 1003.05 1003.57 1004.01 1004.32 1004.48 1004.53 1004.49 1004.43 1004.39 1004.43 1004.58 1004.86 1005.27 1005.78 1006.37 1007.00 1007.66 1008.32 1008.98 1009.62 1010.25 1010.89 1011.53 1012.17 1012.82 1013.46 1014.09 1014.68 1015.23 1015.72 1016.16 1016.53 1016.84 1017.11 1017.33 1017.52 1017.70 1017.87 1018.03 1018.19 1018.34 1018.49
1002.25 1002.85 1003.42 1003.92 1004.29 1004.50 1004.58 1004.55 1004.45 1004.36 1004.32 1004.37 1004.55 1004.87 1005.31 1005.87 1006.50 1007.19 1007.89 1008.60 1009.30 1009.99 1010.65 1011.29 1011.91 1012.53 1013.12 1013.69 1014.23 1014.74 1015.21 1015.63 1016.01 1016.34 1016.64 1016.90 1017.14 1017.37 1017.58 1017.79 1018.00 1018.20 1018.39
1001.88 1002.53 1003.18 1003.75 1004.20 1004.49 1004.63 1004.64 1004.56 1004.44 1004.35 1004.34 1004.44 1004.68 1005.06 1005.58 1006.20 1006.89 1007.63 1008.39 1009.13 1009.85 1010.53 1011.17 1011.77 1012.33 1012.86 1013.37 1013.85 1014.31 1014.74 1015.14 1015.51 1015.86 1016.19 1016.48 1016.76 1017.02 1017.27 1017.51 1017.73 1017.95 1018.14
1001.43 1002.13 1002.85 1003.50 1004.04 1004.44 1004.67 1004.75 1004.71 1004.61 1004.51 1004.46 1004.51 1004.69 1005.02 1005.49 1006.09 1006.78 1007.54 1008.31 1009.08 1009.82 1010.51 1011.14 1011.71 1012.23 1012.71 1013.15 1013.58 1013.98 1014.37 1014.75 1015.12 1015.47 1015.80 1016.12 1016.41 1016.68 1016.92 1017.15 1017.36 1017.55 1017.72
1000.99 1001.72 1002.49 1003.22 1003.85 1004.33 1004.66 1004.83 1004.86 1004.81 1004.73 1004.68 1004.71 1004.85 1005.14 1005.57 1006.14 1006.82 1007.56 1008.34 1009.11 1009.85 1010.54 1011.15 1011.70 1012.19 1012.63 1013.03 1013.40 1013.77 1014.13 1014.49 1014.84 1015.18 1015.51 1015.81 1016.08 1016.33 1016.54 1016.72 1016.88 1017.01 1017.13
1000.63 1001.37 1002.17 1002.94 1003.63 1004.20 1004.61 1004.87 1004.99 1005.00 1004.97 1004.94 1004.97 1005.10 1005.35 1005.75 1006.28 1006.91 1007.62 1008.38 1009.13 1009.85 1010.52 1011.12 1011.65 1012.12 1012.53 1012.91 1013.26 1013.61 1013.95 1014.28 1014.61 1014.93 1015.23 1015.50 1015.73 1015.93 1016.08 1016.20 1016.29 1016.35 1016.41
1000.44 1001.16 1001.94 1002.72 1003.44 1004.06 1004.54 1004.87 1005.06 1005.14 1005.17 1005.18 1005.22 1005.35 1005.58 1005.93 1006.40 1006.98 1007.64 1008.34 1009.04 1009.73 1010.37 1010.95 1011.47 1011.92 1012.33 1012.70 1013.04 1013.38 1013.70 1014.02 1014.33 1014.61 1014.87 1015.09 1015.27 1015.41 1015.50 1015.55 1015.58 1015.59 1015.61
1000.47 1001.13 1001.87 1002.61 1003.32 1003.94 1004.45 1004.83 1005.07 1005.22 1005.30 1005.35 1005.42 1005.54 1005.74 1006.05 1006.46 1006.96 1007.53 1008.15 1008.78 1009.41 1010.00 1010.55 1011.05 1011.50 1011.91 1012.28 1012.63 1012.96 1013.27 1013.57 1013.85 1014.09 1014.30 1014.47 1014.60 1014.68 1014.73 1014.75 1014.76 1014.77 1014.79
1000.75 1001.33 1001.98 1002.65 1003.30 1003.89 1004.39 1004.78 1005.06 1005.24 1005.36 1005.45 1005.53 1005.65 1005.82 1006.07 1006.40 1006.81 1007.28 1007.79 1008.33 1008.88 1009.41 1009.91 1010.39 1010.83 1011.23 1011.60 1011.95 1012.27 1012.56 1012.83 1013.07 1013.27 1013.43 1013.56 1013.65 1013.71 1013.76 1013.79 1013.84 1013.91 1014.01
1001.27 1001.75 1002.30 1002.87 1003.43 1003.95 1004.40 1004.77 1005.05 1005.25 1005.40 1005.50 1005.59 1005.69 1005.83 1006.02 1006.26 1006.56 1006.92 1007.32 1007.75 1008.20 1008.65 1009.10 1009.53 1009.94 1010.33 1010.68 1011.01 1011.30 1011.56 1011.78 1011.97 1012.12 1012.24 1012.34 1012.42 1012.50 1012.59 1012.71 1012.87 1013.06 1013.31
1002.02 1002.40 1002.84 1003.30 1003.75 1004.17 1004.55 1004.87 1005.12 1005.32 1005.46 1005.57 1005.66 1005.74 1005.83 1005.96 1006.11 1006.31 1006.56 1006.84 1007.16 1007.51 1007.87 1008.24 1008.62 1008.98 1009.32 1009.64 1009.92 1010.16 1010.36 1010.52 1010.64 1010.74 1010.82 1010.91 1011.02 1011.15 1011.35 1011.60 1011.92 1012.30 1012.75
1002.95 1003.25 1003.59 1003.93 1004.27 1004.59 1004.88 1005.14 1005.34 1005.51 1005.64 1005.73 1005.81 1005.87 1005.93 1006.00 1006.08 1006.19 1006.34 1006.52 1006.73 1006.98 1007.26 1007.55 1007.85 1008.15 1008.43 1008.68 1008.89 1009.05 1009.17 1009.24 1009.30 1009.34 1009.39 1009.48 1009.63 1009.85 1010.17 1010.60 1011.11 1011.72 1012.39
1004.02 1004.27 1004.52 1004.77 1005.02 1005.24 1005.44 1005.62 1005.77 1005.89 1005.99 1006.07 1006.14 1006.18 1006.22 1006.25 1006.29 1006.34 1006.41 1006.51 1006.65 1006.82 1007.01 1007.23 1007.46 1007.68 1007.88 1008.05 1008.16 1008.23 1008.25 1008.24 1008.21 1008.20 1008.22 1008.32 1008.52 1008.84 1009.30 1009.89 1010.61 1011.42 1012.29
Thickness
5800 5796 5791 5788 5783 5778 5773 5769 5765 5761 5757 5754 5751 5748 5747 5747 5747 5747 5745 5744 5744 5743 5742 5744 5741 5741 5741 5739 5739 5737 5735 5735 5735 5734 5732 5733 5735 5734 5732 5732 5731 5730 5728
5797 5794 5790 5787 5782 5777 5773 5769 5765 5762 5758 5756 5753 5751 5749 5747 5747 5746 5744 5743 5743 5742 5742 5741 5741 5740 5739 5737 5736 5735 5735 5734 5734 5731 5728 5725 5727 5729 5734 5731 5730 5729 5727
5797 5794 5790 5787 5784 5779 5775 5772 5767 5763 5759 5757 5753 5750 5747 5745 5744 5743 5743 5742 5741 5741 5740 5740 5740 5738 5739 5737 5735 5734 5732 5731 5732 5732 5729 5724 5721 5725 5729 5729 5729 5727 5726
5802 5797 5793 5789 5785 5782 5778 5773 5768 5764 5760 5756 5754 5751 5747 5744 5744 5744 5744 5742 5740 5740 5739 5738 5737 5737 5738 5736 5736 5736 5734 5731 5729 5729 5729 5728 5728 5723 5721 5726 5728 5726 5724
5806 5801 5798 5793 5789 5786 5780 5774 5769 5765 5761 5758 5755 5751 5749 5747 5747 5745 5742 5741 5740 5739 5738 5737 5737 5736 5736 5736 5735 5733 5732 5731 5730 5728 5727 5727 5726 5727 5723 5719 5722 5724 5725
5809 5805 5801 5796 5790 5787 5782 5776 5769 5765 5762 5758 5756 5752 5749 5747 5745 5743 5742 5740 5741 5739 5738 5737 5735 5735 5736 5734 5733 5732 5731 5730 5728 5728 5728 5727 5726 5725 5724 5720 5719 5719 5723
5810 5805 5800 5795 5790 5786 5781 5777 5770 5765 5763 5759 5757 5754 5751 5748 5744 5744 5742 5741 5742 5740 5738 5737 5735 5735 5733 5733 5732 5730 5730 5729 5726 5726 5727 5728 5727 5728 5726 5722 5720 5719 5721
5811 5807 5803 5798 5792 5787 5782 5778 5771 5766 5763 5761 5758 5756 5752 5750 5748 5745 5746 5743 5743 5742 5740 5736 5734 5733 5732 5732 5730 5730 5728 5727 5726 5726 5725 5725 5726 5726 5725 5723 5719 5715 5717
5809 5807 5804 5800 5794 5789 5784 5779 5772 5767 5764 5762 5759 5755 5752 5751 5749 5747 5745 5745 5743 5742 5739 5736 5734 5733 5732 5731 5729 5729 5726 5726 5726 5726 5724 5724 5725 5724 5725 5724 5722 5716 5712
5807 5805 5803 5799 5795 5791 5786 5781 5775 5770 5766 5762 5759 5756 5753 5750 5748 5747 5745 5744 5742 5741 5738 5736 5734 5732 5731 5729 5728 5727 5725 5724 5724 5723 5723 5721 5724 5724 5723 5722 5722 5720 5717
5802 5802 5801 5799 5795 5791 5786 5781 5776 5770 5766 5763 5759 5756 5752 5749 5747 5745 5744 5742 5741 5738 5737 5735 5733 5731 5730 5729 5727 5727 5725 5723 5723 5722 5722 5720 5720 5721 5722 5721 5720 5719 5717
5800 5799 5797 5795 5792 5788 5785 5780 5776 5771 5767 5763 5760 5756 5753 5749 5747 5745 5744 5742 5740 5737 5736 5734 5732 5731 5730 5728 5726 5724 5724 5722 5721 5721 5720 5719 5719 5717 5718 5718 5717 5716 5714
5794 5794 5792 5790 5788 5785 5783 5780 5776 5771 5768 5763 5759 5756 5753 5749 5747 5745 5744 5742 5740 5737 5735 5733 5732 5730 5729 5727 5725 5724 5723 5722 5721 5720 5719 5718 5717 5714 5715 5713 5715 5715 5714
5787 5787 5785 5784 5783 5782 5779 5777 5774 5771 5767 5763 5760 5756 5754 5750 5748 5745 5743 5741 5739 5737 5735 5733 5731 5730 5728 5726 5725 5722 5721 5720 5720 5719 5718 5718 5716 5714 5713 5712 5711 5711 5710
5781 5781 5780 5779 5778 5776 5775 5773 5771 5769 5766 5762 5759 5757 5754 5751 5748 5744 5742 5740 5738 5736 5734 5732 5730 5728 5727 5726 5724 5721 5720 5718 5718 5717 5717 5716 5715 5713 5711 5713 5711 5709 5708
5775 5776 5775 5774 5773 5772 5771 5769 5768 5766 5763 5760 5758 5756 5753 5749 5746 5743 5740 5738 5736 5734 5733 5731 5729 5727 5728 5725 5721 5720 5720 5718 5716 5715 5715 5714 5712 5709 5706 5706 5705 5704 5704
5771 5771 5771 5770 5769 5769 5768 5766 5765 5763 5760 5757 5756 5753 5751 5747 5745 5743 5739 5736 5734 5733 5731 5730 5729 5727 5726 5721 5718 5715 5717 5717 5715 5714 5713 5714 5715 5710 5709 5704 5700 5700 5698
5766 5767 5767 5766 5766 5766 5765 5763 5762 5759 5757 5755 5753 5751 5748 5745 5743 5740 5737 5735 5733 5731 5730 5729 5728 5726 5724 5719 5715 5713 5713 5715 5714 5713 5712 5711 5711 5710 5707 5705 5703 5702 5700
5762 5763 5764 5764 5762 5761 5760 5759 5757 5755 5753 5752 5750 5748 5746 5743 5740 5738 5736 5735 5733 5731 5729 5729 5727 5724 5722 5717 5713 5710 5712 5712 5712 5712 5712 5710 5708 5705 5701 5700 5699 5698 5697
5758 5759 5760 5759 5756 5755 5755 5753 5751 5749 5748 5748 5747 5746 5744 5741 5738 5735 5734 5733 5731 5730 5728 5727 5726 5724 5722 5716 5712 5708 5712 5712 5711 5710 5709 5705 5705 5701 5697 5696 5695 5693 5693
5751 5753 5753 5752 5751 5750 5748 5746 5745 5744 5745 5745 5744 5742 5740 5737 5735 5733 5732 5731 5729 5727 5725 5724 5724 5723 5721 5715 5711 5708 5711 5713 5711 5710 5709 5708 5700 5696 5693 5691 5692 5690 5688
5744 5745 5744 5744 5745 5744 5742 5740 5740 5742 5742 5740 5739 5738 5737 5735 5734 5730 5729 5727 5726 5723 5721 5720 5719 5720 5718 5714 5709 5706 5706 5708 5708 5707 5707 5705 5697 5692 5688 5686 5685 5682 5679
5735 5738 5738 5737 5737 5738 5737 5735 5736 5737 5736 5735 5734 5734 5733 5732 5731 5728 5725 5724 5723 5721 5720 5719 5718 5717 5716 5712 5708 5703 5701 5700 5701 5703 5700 5696 5691 5687 5684 5680 5678 5676 5676
5726 5729 5729 5729 5729 5730 5731 5731 5732 5732 5731 5730 5730 5730 5729 5727 5726 5725 5724 5722 5721 5720 5719 5718 5717 5716 5713 5711 5708 5703 5698 5694 5693 5693 5691 5687 5684 5682 5681 5678 5674 5672 5673
5717 5719 5720 5720 5721 5723 5724 5725 5726 5726 5725 5725 5725 5725 5724 5723 5721 5719 5718 5718 5717 5718 5716 5716 5715 5712 5710 5709 5706 5703 5700 5697 5693 5690 5687 5686 5683 5680 5678 5676 5673 5671 5668
5708 5710 5712 5713 5714 5716 5717 5718 5720 5720 5719 5719 5720 5721 5719 5717 5716 5714 5711 5709 5709 5708 5707 5707 5707 5707 5704 5700 5697 5694 5691 5688 5685 5681 5681 5679 5678 5676 5673 5670 5668 5665 5663